Hourly Weather Rudashkovo

Today, 18 April, Sunday

Time Temperature Precipitation Wind Pressure Humidity
00:00 +8°C° 0 mm 5 mps 745 mmHg 86%
01:00 +7°C° 0 mm 5 mps 745 mmHg 86%
02:00 +7°C° 0 mm 4 mps 746 mmHg 86%
03:00 +6°C° 0 mm 4 mps 746 mmHg 86%
04:00 +6°C° 0 mm 4 mps 746 mmHg 87%
05:00 +5°C° 0 mm 4 mps 746 mmHg 87%
06:00 +6°C° 0 mm 5 mps 746 mmHg 82%
07:00 +7°C° 0 mm 5 mps 746 mmHg 77%
08:00 +7°C° 0 mm 6 mps 746 mmHg 72%
09:00 +8°C° 0 mm 6 mps 747 mmHg 69%
10:00 +9°C° 0 mm 6 mps 747 mmHg 67%
11:00 +10°C° 0 mm 6 mps 747 mmHg 65%
12:00 +10°C° 0 mm 5 mps 747 mmHg 66%
13:00 +10°C° 0 mm 5 mps 747 mmHg 68%
14:00 +10°C° 0 mm 4 mps 748 mmHg 69%
15:00 +10°C° 0 mm 4 mps 748 mmHg 70%
16:00 +10°C° 0 mm 3 mps 748 mmHg 72%
17:00 +9°C° 0 mm 3 mps 748 mmHg 73%
18:00 +9°C° 0 mm 2 mps 748 mmHg 76%
19:00 +8°C° 0 mm 2 mps 748 mmHg 79%
20:00 +8°C° 0 mm 2 mps 749 mmHg 83%
21:00 +7°C° 0 mm 2 mps 749 mmHg 84%
22:00 +7°C° 0 mm 2 mps 749 mmHg 86%
23:00 +6°C° 0 mm 2 mps 749 mmHg 88%

Tomorrow, 19 April, Monday

Time Temperature Precipitation Wind Pressure Humidity
00:00 +5°C° 0 mm 3 mps 749 mmHg 87%
01:00 +5°C° 0 mm 3 mps 749 mmHg 87%
02:00 +5°C° 0 mm 3 mps 749 mmHg 86%
03:00 +5°C° 0 mm 3 mps 749 mmHg 86%
04:00 +5°C° 0 mm 3 mps 749 mmHg 86%
05:00 +5°C° 0 mm 3 mps 749 mmHg 85%
06:00 +5°C° 0 mm 3 mps 749 mmHg 85%
07:00 +6°C° 0 mm 4 mps 749 mmHg 84%
08:00 +6°C° 0 mm 4 mps 749 mmHg 84%
09:00 +6°C° 0 mm 4 mps 749 mmHg 82%
10:00 +7°C° 0 mm 4 mps 749 mmHg 81%
11:00 +7°C° 0 mm 5 mps 749 mmHg 79%
12:00 +7°C° 0 mm 5 mps 749 mmHg 80%
13:00 +7°C° 0 mm 5 mps 749 mmHg 82%
14:00 +6°C° 0 mm 5 mps 749 mmHg 83%
15:00 +6°C° 0 mm 5 mps 749 mmHg 85%
16:00 +6°C° 0 mm 5 mps 749 mmHg 86%
17:00 +5°C° 0 mm 5 mps 749 mmHg 87%
18:00 +5°C° 0 mm 5 mps 749 mmHg 87%
19:00 +5°C° 0 mm 5 mps 749 mmHg 87%
20:00 +5°C° 0 mm 4 mps 749 mmHg 87%
21:00 +4°C° 0 mm 4 mps 749 mmHg 87%
22:00 +4°C° 0 mm 3 mps 749 mmHg 87%
23:00 +4°C° 0 mm 3 mps 748 mmHg 87%

Day after tomorrow, 20 April, Tuesday

Time Temperature Precipitation Wind Pressure Humidity
00:00 +4°C° 0 mm 3 mps 748 mmHg 88%
01:00 +4°C° 0 mm 3 mps 748 mmHg 90%
02:00 +3°C° 0 mm 4 mps 747 mmHg 91%
03:00 +3°C° 0.1 mm 4 mps 747 mmHg 93%
04:00 +1°C° 0.1 mm 4 mps 747 mmHg 94%
05:00 +1°C° 0.1 mm 4 mps 746 mmHg 96%
06:00 +1°C° 0.1 mm 4 mps 746 mmHg 93%
07:00 +1°C° 0.1 mm 4 mps 746 mmHg 90%
08:00 +1°C° 0.1 mm 4 mps 746 mmHg 87%
09:00 +1°C° 0.1 mm 4 mps 745 mmHg 86%
10:00 +3°C° 0.1 mm 4 mps 745 mmHg 85%
11:00 +3°C° 0.1 mm 4 mps 745 mmHg 85%
12:00 +3°C° 0.4 mm 4 mps 744 mmHg 89%
13:00 +1°C° 0.4 mm 4 mps 744 mmHg 93%
14:00 +2°C° 0.4 mm 3 mps 744 mmHg 97%
15:00 +2°C° 0.3 mm 3 mps 743 mmHg 97%
16:00 +2°C° 0.3 mm 3 mps 743 mmHg 97%
17:00 +2°C° 0.3 mm 3 mps 742 mmHg 97%
18:00 +2°C° 0 mm 3 mps 742 mmHg 97%
19:00 +1°C° 0 mm 4 mps 741 mmHg 97%
20:00 +1°C° 0 mm 4 mps 741 mmHg 97%
21:00 +1°C° 0.1 mm 4 mps 740 mmHg 97%
22:00 +1°C° 0.1 mm 4 mps 739 mmHg 97%
23:00 +1°C° 0.1 mm 5 mps 738 mmHg 97%

21 April, Wednesday

Time Temperature Precipitation Wind Pressure Humidity
00:00 +1°C° 0.5 mm 5 mps 738 mmHg 97%
01:00 0°C° 0.5 mm 5 mps 737 mmHg 97%
02:00 0°C° 0.5 mm 5 mps 736 mmHg 97%
03:00 0°C° 0.8 mm 5 mps 736 mmHg 97%
04:00 0°C° 0.8 mm 5 mps 736 mmHg 97%
05:00 0°C° 0.8 mm 5 mps 735 mmHg 97%
06:00 0°C° 0.3 mm 5 mps 735 mmHg 97%
07:00 0°C° 0.3 mm 5 mps 735 mmHg 97%
08:00 +1°C° 0.3 mm 5 mps 735 mmHg 97%
09:00 +1°C° 0.1 mm 6 mps 735 mmHg 96%
10:00 +1°C° 0.1 mm 6 mps 736 mmHg 95%
11:00 +2°C° 0.1 mm 6 mps 736 mmHg 94%
12:00 +3°C° 0 mm 6 mps 737 mmHg 88%
13:00 +4°C° 0 mm 6 mps 737 mmHg 82%
14:00 +5°C° 0 mm 5 mps 737 mmHg 77%
15:00 +5°C° 0 mm 5 mps 738 mmHg 77%
16:00 +5°C° 0 mm 5 mps 738 mmHg 77%
17:00 +5°C° 0 mm 4 mps 739 mmHg 77%
18:00 +5°C° 0 mm 4 mps 739 mmHg 79%
19:00 +4°C° 0 mm 3 mps 740 mmHg 82%
20:00 +4°C° 0 mm 3 mps 740 mmHg 84%
21:00 +3°C° 0 mm 3 mps 740 mmHg 86%
22:00 +3°C° 0 mm 3 mps 741 mmHg 87%
23:00 +2°C° 0 mm 3 mps 741 mmHg 89%

22 April, Thursday

Time Temperature Precipitation Wind Pressure Humidity
00:00 +2°C° 0 mm 3 mps 741 mmHg 88%
01:00 +2°C° 0 mm 3 mps 742 mmHg 88%
02:00 +2°C° 0 mm 3 mps 742 mmHg 88%
03:00 +1°C° 0 mm 3 mps 742 mmHg 89%
04:00 +2°C° 0 mm 2 mps 742 mmHg 90%
05:00 +2°C° 0 mm 2 mps 743 mmHg 91%
06:00 +4°C° 0 mm 2 mps 743 mmHg 87%
07:00 +6°C° 0 mm 2 mps 743 mmHg 82%
08:00 +8°C° 0 mm 2 mps 744 mmHg 77%
09:00 +9°C° 0 mm 3 mps 744 mmHg 71%
10:00 +11°C° 0 mm 3 mps 744 mmHg 65%
11:00 +12°C° 0 mm 3 mps 745 mmHg 59%
12:00 +13°C° 0.1 mm 4 mps 744 mmHg 56%
13:00 +13°C° 0.1 mm 4 mps 744 mmHg 53%
14:00 +14°C° 0.1 mm 4 mps 744 mmHg 49%
15:00 +14°C° 0 mm 3 mps 744 mmHg 52%
16:00 +14°C° 0 mm 3 mps 745 mmHg 54%
17:00 +13°C° 0 mm 3 mps 745 mmHg 56%
18:00 +12°C° 0 mm 3 mps 745 mmHg 62%
19:00 +11°C° 0 mm 3 mps 745 mmHg 68%
20:00 +10°C° 0 mm 2 mps 745 mmHg 74%
21:00 +9°C° 0.1 mm 2 mps 745 mmHg 77%
22:00 +8°C° 0.1 mm 2 mps 745 mmHg 81%
23:00 +8°C° 0.1 mm 2 mps 745 mmHg 84%

23 April, Friday

Time Temperature Precipitation Wind Pressure Humidity
00:00 +7°C° 0.1 mm 3 mps 745 mmHg 86%
01:00 +7°C° 0.1 mm 3 mps 745 mmHg 88%
02:00 +7°C° 0.1 mm 3 mps 745 mmHg 90%
03:00 +5°C° 0 mm 3 mps 744 mmHg 91%
04:00 +5°C° 0 mm 3 mps 744 mmHg 93%
05:00 +5°C° 0 mm 3 mps 744 mmHg 94%
06:00 +7°C° 0 mm 3 mps 744 mmHg 89%
07:00 +8°C° 0 mm 4 mps 744 mmHg 84%
08:00 +9°C° 0 mm 5 mps 744 mmHg 79%
09:00 +12°C° 0.1 mm 5 mps 744 mmHg 73%
10:00 +13°C° 0.1 mm 5 mps 744 mmHg 67%
11:00 +15°C° 0.1 mm 6 mps 744 mmHg 61%
12:00 +15°C° 0.5 mm 6 mps 744 mmHg 62%
13:00 +15°C° 0.5 mm 7 mps 744 mmHg 62%
14:00 +14°C° 0.5 mm 7 mps 744 mmHg 62%
15:00 +12°C° 0.1 mm 7 mps 745 mmHg 66%
16:00 +11°C° 0.1 mm 6 mps 745 mmHg 70%
17:00 +10°C° 0.1 mm 6 mps 745 mmHg 73%
18:00 +8°C° 0 mm 5 mps 746 mmHg 78%
19:00 +6°C° 0 mm 5 mps 746 mmHg 83%
20:00 +5°C° 0 mm 4 mps 746 mmHg 88%
21:00 +5°C° 0 mm 4 mps 747 mmHg 87%
22:00 +4°C° 0 mm 4 mps 747 mmHg 86%
23:00 +4°C° 0 mm 4 mps 747 mmHg 85%
Show more